START_TIME,STEP,MOV.,M29,t_acc.,H22,t_acc.,H26,t_acc.,H30,t_acc.
1981-08-24 00:00:33.000 ,6,0,0.,24.0,0.,24.0,0.,24.0,0.,24.0
1981-08-24 00:00:57.000 ,7,1,0.,24.0,0.,24.0,0.,24.0,0.,24.0
1981-08-24 00:01:21.000 ,7,0,1.,24.0,0.,24.0,0.,24.0,0.,24.0
1981-08-24 00:01:45.000 ,7,1,0.,24.0,0.,24.0,0.,24.0,0.,24.0
1981-08-24 00:02:09.000 ,6,1,0.,24.0,0.,24.0,0.,24.0,0.,24.0
1981-08-24 00:02:33.000 ,5,1,0.,24.0,0.,24.0,0.,24.0,0.,24.0
1981-08-24 00:02:57.000 ,4,1,0.,24.0,0.,24.0,0.,24.0,0.,24.0
1981-08-24 00:03:21.000 ,3,1,0.,24.0,0.,24.0,0.,24.0,0.,24.0
1981-08-24 00:03:45.000 ,2,1,0.,24.0,0.,24.0,0.,24.0,0.,24.0
1981-08-24 00:04:09.000 ,1,1,0.,24.0,0.,24.0,0.,24.0,0.,24.0
1981-08-24 00:04:33.000 ,0,1,0.,24.0,0.,24.0,0.,24.0,0.,24.0
1981-08-24 00:04:57.000 ,0,1,0.,24.0,0.,24.0,0.,24.0,0.,24.0
1981-08-24 00:05:21.000 ,1,1,0.,24.0,0.,24.0,0.,24.0,0.,24.0
1981-08-24 00:05:45.000 ,2,1,0.,24.0,0.,24.0,0.,24.0,0.,24.0
1981-08-24 00:06:09.000 ,3,1,0.,24.0,0.,24.0,0.,24.0,0.,24.0
1981-08-24 00:06:33.000 ,4,1,0.,24.0,0.,24.0,0.,24.0,0.,24.0
1981-08-24 00:06:57.000 ,5,1,0.,24.0,0.,24.0,0.,24.0,0.,24.0
1981-08-24 00:07:21.000 ,6,1,0.,24.0,0.,24.0,0.,24.0,0.,24.0
1981-08-24 00:07:45.000 ,7,1,0.,24.0,0.,24.0,0.,24.0,0.,24.0
1981-08-24 00:08:09.000 ,7,1,0.,24.0,0.,24.0,0.,24.0,0.,24.0
1981-08-24 00:08:33.000 ,7,0,0.,24.0,0.,24.0,0.,24.0,0.,24.0
1981-08-24 00:08:57.000 ,6,1,0.,24.0,0.,24.0,0.,24.0,0.,24.0
1981-08-24 00:09:21.000 ,6,0,0.,24.0,0.,24.0,0.,24.0,0.,24.0
1981-08-24 00:09:45.000 ,0,0,0.,24.0,0.,24.0,0.,24.0,0.,24.0
1981-08-24 00:10:09.000 ,0,0,,0,,0,,0,,0
1981-08-24 00:10:09.000 ,0,0,,0,,0,,0,,0
1981-08-24 00:10:09.000 ,0,0,,0,,0,,0,,0
1981-08-24 00:10:09.000 ,5,0,0.,24.0,0.,24.0,0.,24.0,0.,24.0
1981-08-24 00:10:33.000 ,4,1,0.,24.0,0.,24.0,0.,24.0,0.,24.0
1981-08-24 00:10:57.000 ,4,0,0.,24.0,0.,24.0,0.,24.0,0.,24.0
1981-08-24 00:11:21.000 ,3,1,0.,24.0,0.,24.0,0.,24.0,0.,24.0
1981-08-24 00:11:45.000 ,3,0,0.,24.0,0.,24.0,0.,24.0,0.,24.0
1981-08-24 00:12:09.000 ,2,1,0.,24.0,0.,24.0,0.,24.0,0.,24.0
1981-08-24 00:12:33.000 ,2,0,0.,24.0,0.,24.0,0.,24.0,0.,24.0
1981-08-24 00:12:57.000 ,1,1,0.,24.0,0.,24.0,0.,24.0,0.,24.0
1981-08-24 00:13:21.000 ,1,0,0.,24.0,0.,24.0,0.,24.0,0.,24.0
1981-08-24 00:14:09.000 ,0,0,0.,24.0,0.,24.0,0.,24.0,0.,24.0
1981-08-24 00:14:33.000 ,0,1,0.,24.0,0.,24.0,0.,24.0,0.,24.0
1981-08-24 00:14:57.000 ,0,0,0.,24.0,0.,24.0,0.,24.0,0.,24.0
1981-08-24 00:15:21.000 ,1,1,0.,24.0,0.,24.0,0.,24.0,0.,24.0
1981-08-24 00:15:45.000 ,1,0,0.,24.0,0.,24.0,0.,24.0,0.,24.0
1981-08-24 00:16:09.000 ,2,1,0.,24.0,0.,24.0,0.,24.0,0.,24.0
1981-08-24 00:16:33.000 ,2,0,0.,24.0,0.,24.0,0.,24.0,0.,24.0
1981-08-24 00:16:57.000 ,3,1,0.,24.0,0.,24.0,0.,24.0,0.,24.0
1981-08-24 00:17:21.000 ,3,0,0.,24.0,0.,24.0,0.,24.0,0.,24.0
1981-08-24 00:17:45.000 ,4,1,0.,24.0,0.,24.0,0.,24.0,0.,24.0
1981-08-24 00:18:09.000 ,4,0,0.,24.0,0.,24.0,0.,24.0,0.,24.0
1981-08-24 00:18:33.000 ,5,1,0.,24.0,0.,24.0,0.,24.0,0.,24.0
1981-08-24 00:18:57.000 ,5,0,0.,24.0,0.,24.0,0.,24.0,0.,24.0
1981-08-24 00:19:21.000 ,6,1,0.,24.0,0.,24.0,0.,24.0,0.,24.0
1981-08-24 00:19:45.000 ,6,0,0.,24.0,0.,24.0,0.,24.0,0.,24.0
1981-08-24 00:20:09.000 ,7,1,0.,24.0,0.,24.0,0.,24.0,0.,24.0
1981-08-24 00:20:33.000 ,7,0,0.,24.0,0.,24.0,0.,24.0,0.,24.0
1981-08-24 00:20:57.000 ,7,1,0.,24.0,0.,24.0,0.,24.0,0.,24.0
1981-08-24 00:21:21.000 ,6,1,0.,24.0,0.,24.0,0.,24.0,0.,24.0
1981-08-24 00:21:45.000 ,5,1,0.,24.0,0.,24.0,0.,24.0,0.,24.0
1981-08-24 00:22:09.000 ,4,1,0.,24.0,0.,24.0,0.,24.0,0.,24.0
1981-08-24 00:22:33.000 ,3,1,0.,24.0,0.,24.0,0.,24.0,0.,24.0
1981-08-24 00:22:57.000 ,2,1,0.,24.0,0.,24.0,0.,24.0,0.,24.0
1981-08-24 00:23:21.000 ,1,1,0.,24.0,0.,24.0,0.,24.0,0.,24.0
1981-08-24 00:23:45.000 ,0,1,0.,24.0,0.,24.0,0.,24.0,0.,24.0
1981-08-24 00:24:09.000 ,0,1,0.,24.0,0.,24.0,0.,24.0,0.,24.0
1981-08-24 00:24:33.000 ,1,1,0.,24.0,0.,24.0,0.,24.0,0.,24.0
1981-08-24 00:24:57.000 ,2,1,0.,24.0,0.,24.0,0.,24.0,0.,24.0
1981-08-24 00:25:21.000 ,3,1,0.,24.0,0.,24.0,0.,24.0,0.,24.0
1981-08-24 00:25:45.000 ,4,1,0.,24.0,0.,24.0,0.,24.0,0.,24.0
1981-08-24 00:26:09.000 ,5,1,0.,24.0,0.,24.0,0.,24.0,0.,24.0
1981-08-24 00:26:33.000 ,6,1,0.,24.0,0.,24.0,0.,24.0,0.,24.0
1981-08-24 00:26:57.000 ,7,1,0.,24.0,0.,24.0,0.,24.0,0.,24.0
1981-08-24 00:27:21.000 ,7,1,0.,24.0,0.,24.0,0.,24.0,0.,24.0
1981-08-24 00:27:45.000 ,7,0,0.,24.0,0.,24.0,0.,24.0,0.,24.0
1981-08-24 00:28:09.000 ,6,1,0.,24.0,0.,24.0,0.,24.0,0.,24.0
1981-08-24 00:28:33.000 ,6,0,0.,24.0,0.,24.0,0.,24.0,0.,24.0
1981-08-24 00:28:57.000 ,5,1,0.,24.0,0.,24.0,0.,24.0,0.,24.0
1981-08-24 00:29:21.000 ,5,0,0.,24.0,0.,24.0,0.,24.0,0.,24.0
1981-08-24 00:29:45.000 ,4,1,0.,24.0,0.,24.0,0.,24.0,0.,24.0
1981-08-24 00:30:09.000 ,4,0,0.,24.0,0.,24.0,0.,24.0,0.,24.0
1981-08-24 00:30:32.990 ,3,1,0.,24.0,0.,24.0,0.,24.0,0.,24.0
1981-08-24 00:30:56.990 ,3,0,0.,24.0,0.,24.0,0.,24.0,0.,24.0
1981-08-24 00:31:20.990 ,2,1,0.,24.0,0.,24.0,0.,24.0,0.,24.0
1981-08-24 00:31:44.990 ,2,0,0.,24.0,0.,24.0,0.,24.0,0.,24.0
1981-08-24 00:32:08.990 ,1,1,0.,24.0,0.,24.0,0.,24.0,0.,24.0
1981-08-24 00:32:32.990 ,1,0,0.,24.0,0.,24.0,0.,24.0,0.,24.0
1981-08-24 00:32:56.990 ,0,1,0.,24.0,0.,24.0,0.,24.0,0.,24.0
1981-08-24 00:33:20.990 ,0,0,0.,24.0,0.,24.0,0.,24.0,0.,24.0
1981-08-24 00:34:32.990 ,0,0,0.,24.0,0.,24.0,0.,24.0,0.,24.0
1981-08-24 00:34:56.990 ,0,0,1.,24.0,0.,24.0,0.,24.0,0.,24.0
1981-08-24 00:35:20.990 ,2,1,0.,24.0,0.,24.0,0.,24.0,0.,24.0
1981-08-24 00:35:44.990 ,2,0,0.,24.0,0.,24.0,0.,24.0,0.,24.0
1981-08-24 00:36:08.990 ,3,1,0.,24.0,0.,24.0,0.,24.0,0.,24.0
1981-08-24 00:36:32.990 ,3,0,0.,24.0,0.,24.0,0.,24.0,0.,24.0
1981-08-24 00:36:56.990 ,4,1,0.,24.0,0.,24.0,0.,24.0,0.,24.0
1981-08-24 00:37:20.990 ,4,0,0.,24.0,0.,24.0,0.,24.0,0.,24.0
1981-08-24 00:37:44.990 ,5,1,0.,24.0,0.,24.0,0.,24.0,0.,24.0
1981-08-24 00:38:08.990 ,5,0,0.,24.0,0.,24.0,0.,24.0,0.,24.0
1981-08-24 00:38:32.990 ,6,1,0.,24.0,0.,24.0,0.,24.0,0.,24.0
1981-08-24 00:38:56.990 ,6,0,0.,24.0,0.,24.0,0.,24.0,0.,24.0
1981-08-24 00:39:20.990 ,7,1,0.,24.0,0.,24.0,0.,24.0,0.,24.0
1981-08-24 00:39:44.990 ,7,0,0.,24.0,0.,24.0,0.,24.0,0.,24.0
1981-08-24 00:40:08.990 ,7,1,0.,24.0,0.,24.0,0.,24.0,0.,24.0
1981-08-24 00:40:32.990 ,6,1,0.,24.0,0.,24.0,0.,24.0,0.,24.0
1981-08-24 00:40:56.990 ,5,1,0.,24.0,0.,24.0,0.,24.0,0.,24.0
1981-08-24 00:41:20.990 ,4,1,0.,24.0,0.,24.0,0.,24.0,0.,24.0
1981-08-24 00:41:44.990 ,3,1,0.,24.0,0.,24.0,0.,24.0,0.,24.0
1981-08-24 00:42:08.990 ,2,1,0.,24.0,0.,24.0,0.,24.0,0.,24.0
1981-08-24 00:42:32.990 ,1,1,0.,24.0,0.,24.0,0.,24.0,0.,24.0
1981-08-24 00:42:56.990 ,0,1,0.,24.0,0.,24.0,0.,24.0,0.,24.0
1981-08-24 00:43:20.990 ,0,1,0.,24.0,0.,24.0,0.,24.0,0.,24.0
1981-08-24 00:43:44.990 ,1,1,0.,24.0,0.,24.0,0.,24.0,0.,24.0
1981-08-24 00:44:08.990 ,2,1,0.,24.0,0.,24.0,0.,24.0,0.,24.0
1981-08-24 00:44:32.990 ,3,1,0.,24.0,0.,24.0,0.,24.0,0.,24.0
1981-08-24 00:44:56.990 ,4,1,0.,24.0,0.,24.0,0.,24.0,0.,24.0
1981-08-24 00:45:20.990 ,5,1,0.,24.0,0.,24.0,0.,24.0,0.,24.0
1981-08-24 00:45:44.990 ,6,1,0.,24.0,0.,24.0,0.,24.0,0.,24.0
1981-08-24 00:46:08.990 ,7,1,0.,24.0,0.,24.0,0.,24.0,0.,24.0
1981-08-24 00:46:32.990 ,7,1,0.,24.0,0.,24.0,0.,24.0,0.,24.0
1981-08-24 00:46:56.990 ,7,0,0.,24.0,0.,24.0,0.,24.0,0.,24.0
1981-08-24 00:47:20.990 ,6,1,0.,24.0,0.,24.0,0.,24.0,0.,24.0
1981-08-24 00:47:44.990 ,6,0,0.,24.0,0.,24.0,0.,24.0,0.,24.0
1981-08-24 00:48:08.990 ,5,1,0.,24.0,0.,24.0,0.,24.0,0.,24.0
1981-08-24 00:48:32.990 ,5,0,0.,24.0,0.,24.0,0.,24.0,0.,24.0
1981-08-24 00:48:56.990 ,4,1,0.,24.0,0.,24.0,0.,24.0,0.,24.0
1981-08-24 00:49:20.990 ,4,0,0.,24.0,0.,24.0,0.,24.0,0.,24.0
1981-08-24 00:49:44.990 ,3,1,0.,24.0,0.,24.0,0.,24.0,0.,24.0
1981-08-24 00:50:08.990 ,3,0,0.,24.0,0.,24.0,0.,24.0,0.,24.0
1981-08-24 00:50:32.990 ,2,1,0.,24.0,0.,24.0,0.,24.0,0.,24.0
1981-08-24 00:50:56.990 ,2,0,0.,24.0,0.,24.0,0.,24.0,0.,24.0
1981-08-24 00:51:20.990 ,1,1,0.,24.0,0.,24.0,0.,24.0,0.,24.0
1981-08-24 00:51:44.990 ,1,0,0.,24.0,0.,24.0,0.,24.0,0.,24.0
1981-08-24 00:52:08.990 ,0,1,0.,24.0,0.,24.0,0.,24.0,0.,24.0
1981-08-24 00:52:32.990 ,0,0,0.,24.0,0.,24.0,0.,24.0,0.,24.0
1981-08-24 00:52:56.990 ,0,1,0.,24.0,0.,24.0,0.,24.0,0.,24.0
1981-08-24 00:53:20.990 ,0,0,0.,24.0,0.,24.0,0.,24.0,0.,24.0
1981-08-24 00:53:44.990 ,1,1,0.,24.0,0.,24.0,0.,24.0,0.,24.0
1981-08-24 00:54:08.990 ,1,0,1.,24.0,0.,24.0,0.,24.0,0.,24.0
1981-08-24 00:54:32.990 ,2,1,0.,24.0,0.,24.0,0.,24.0,0.,24.0
1981-08-24 00:54:56.990 ,2,0,0.,24.0,0.,24.0,0.,24.0,0.,24.0
1981-08-24 00:55:20.990 ,3,1,0.,24.0,0.,24.0,0.,24.0,0.,24.0
1981-08-24 00:55:44.990 ,3,0,0.,24.0,0.,24.0,0.,24.0,0.,24.0
1981-08-24 00:56:08.990 ,4,1,0.,24.0,0.,24.0,0.,24.0,0.,24.0
1981-08-24 00:56:32.990 ,4,0,0.,24.0,0.,24.0,0.,24.0,0.,24.0
1981-08-24 00:56:56.990 ,5,1,0.,24.0,0.,24.0,0.,24.0,0.,24.0
1981-08-24 00:57:20.990 ,5,0,0.,24.0,0.,24.0,0.,24.0,0.,24.0
1981-08-24 00:57:44.990 ,6,1,0.,24.0,0.,24.0,0.,24.0,0.,24.0
1981-08-24 00:58:08.990 ,6,0,0.,24.0,0.,24.0,0.,24.0,0.,24.0
1981-08-24 00:58:32.990 ,7,1,0.,24.0,0.,24.0,0.,24.0,0.,24.0
1981-08-24 00:58:56.990 ,7,0,0.,24.0,0.,24.0,0.,24.0,0.,24.0
1981-08-24 00:59:20.990 ,7,1,0.,24.0,0.,24.0,0.,24.0,0.,24.0
1981-08-24 00:59:44.990 ,6,1,0.,24.0,0.,24.0,0.,24.0,0.,24.0
1981-08-24 01:00:08.990 ,5,1,0.,24.0,0.,24.0,0.,24.0,0.,24.0
1981-08-24 01:00:32.990 ,4,1,0.,24.0,0.,24.0,0.,24.0,0.,24.0
1981-08-24 01:00:56.990 ,3,1,0.,24.0,0.,24.0,0.,24.0,0.,24.0
1981-08-24 01:01:20.990 ,2,1,0.,24.0,0.,24.0,0.,24.0,0.,24.0
1981-08-24 01:01:44.990 ,1,1,0.,24.0,0.,24.0,0.,24.0,0.,24.0
1981-08-24 01:02:08.990 ,0,1,0.,24.0,0.,24.0,0.,24.0,0.,24.0
1981-08-24 01:02:32.990 ,0,1,0.,24.0,0.,24.0,0.,24.0,0.,24.0
1981-08-24 01:02:56.990 ,1,1,0.,24.0,0.,24.0,0.,24.0,0.,24.0
1981-08-24 01:03:20.990 ,2,1,0.,24.0,0.,24.0,0.,24.0,0.,24.0
1981-08-24 01:03:44.990 ,3,1,0.,24.0,0.,24.0,0.,24.0,0.,24.0
1981-08-24 01:04:08.990 ,4,1,0.,24.0,0.,24.0,0.,24.0,0.,24.0
1981-08-24 01:04:32.990 ,5,1,0.,24.0,0.,24.0,0.,24.0,0.,24.0
1981-08-24 01:04:56.990 ,6,1,0.,24.0,0.,24.0,0.,24.0,0.,24.0
1981-08-24 01:05:20.990 ,7,1,1.,24.0,0.,24.0,0.,24.0,0.,24.0
1981-08-24 01:05:44.990 ,7,1,0.,24.0,0.,24.0,0.,24.0,0.,24.0
1981-08-24 01:06:08.990 ,7,0,0.,24.0,0.,24.0,0.,24.0,0.,24.0
1981-08-24 01:06:32.990 ,6,1,0.,24.0,0.,24.0,0.,24.0,0.,24.0
1981-08-24 01:06:56.990 ,6,0,0.,24.0,0.,24.0,0.,24.0,0.,24.0
1981-08-24 01:07:20.990 ,5,1,0.,24.0,0.,24.0,0.,24.0,0.,24.0
1981-08-24 01:07:44.990 ,5,0,0.,24.0,0.,24.0,0.,24.0,0.,24.0
1981-08-24 01:08:08.990 ,4,1,0.,24.0,0.,24.0,0.,24.0,0.,24.0
1981-08-24 01:08:32.990 ,4,0,0.,24.0,0.,24.0,0.,24.0,0.,24.0
1981-08-24 01:08:56.990 ,3,1,1.,24.0,0.,24.0,0.,24.0,0.,24.0
1981-08-24 01:09:20.990 ,3,0,1.,24.0,0.,24.0,0.,24.0,0.,24.0
1981-08-24 01:09:44.990 ,2,1,0.,24.0,0.,24.0,0.,24.0,0.,24.0
1981-08-24 01:10:08.990 ,2,0,0.,24.0,0.,24.0,0.,24.0,0.,24.0
1981-08-24 01:10:32.990 ,1,1,0.,24.0,0.,24.0,0.,24.0,0.,24.0
1981-08-24 01:10:56.990 ,1,0,0.,24.0,0.,24.0,0.,24.0,0.,24.0
1981-08-24 01:11:20.990 ,0,1,0.,24.0,0.,24.0,0.,24.0,0.,24.0
1981-08-24 01:11:44.990 ,0,0,0.,24.0,0.,24.0,0.,24.0,0.,24.0
1981-08-24 01:12:08.990 ,0,1,0.,24.0,0.,24.0,0.,24.0,0.,24.0
1981-08-24 01:12:32.990 ,0,0,1.,24.0,0.,24.0,0.,24.0,0.,24.0
1981-08-24 01:12:56.990 ,1,1,0.,24.0,0.,24.0,0.,24.0,0.,24.0
1981-08-24 01:13:20.990 ,1,0,0.,24.0,0.,24.0,0.,24.0,0.,24.0
1981-08-24 01:13:44.990 ,2,1,0.,24.0,0.,24.0,0.,24.0,0.,24.0
1981-08-24 01:14:08.990 ,2,0,0.,24.0,0.,24.0,0.,24.0,0.,24.0
1981-08-24 01:14:32.990 ,3,1,0.,24.0,0.,24.0,0.,24.0,0.,24.0
1981-08-24 01:14:56.990 ,3,0,0.,24.0,0.,24.0,0.,24.0,0.,24.0
1981-08-24 01:15:20.990 ,4,1,0.,24.0,0.,24.0,0.,24.0,0.,24.0
1981-08-24 01:15:44.990 ,4,0,0.,24.0,0.,24.0,0.,24.0,0.,24.0
1981-08-24 01:16:08.990 ,5,1,0.,24.0,0.,24.0,0.,24.0,0.,24.0
1981-08-24 01:16:32.990 ,5,0,0.,24.0,0.,24.0,0.,24.0,0.,24.0
1981-08-24 01:16:56.990 ,6,1,0.,24.0,0.,24.0,0.,24.0,0.,24.0
1981-08-24 01:17:20.990 ,6,0,0.,24.0,0.,24.0,0.,24.0,0.,24.0
1981-08-24 01:17:44.990 ,7,1,0.,24.0,0.,24.0,0.,24.0,0.,24.0
1981-08-24 01:18:08.990 ,7,0,1.,24.0,0.,24.0,0.,24.0,0.,24.0
1981-08-24 01:18:32.990 ,7,1,0.,24.0,0.,24.0,0.,24.0,0.,24.0
1981-08-24 01:18:56.990 ,6,1,0.,24.0,0.,24.0,0.,24.0,0.,24.0
1981-08-24 01:19:20.990 ,5,1,0.,24.0,0.,24.0,0.,24.0,0.,24.0
1981-08-24 01:19:44.990 ,4,1,0.,24.0,0.,24.0,0.,24.0,0.,24.0
1981-08-24 01:20:08.990 ,3,1,0.,24.0,0.,24.0,0.,24.0,0.,24.0
1981-08-24 01:20:32.990 ,2,1,0.,24.0,0.,24.0,0.,24.0,0.,24.0
1981-08-24 01:20:56.990 ,1,1,0.,24.0,0.,24.0,0.,24.0,0.,24.0
1981-08-24 01:21:20.990 ,0,1,0.,24.0,0.,24.0,0.,24.0,0.,24.0
1981-08-24 01:21:44.990 ,0,1,0.,24.0,0.,24.0,0.,24.0,0.,24.0
1981-08-24 01:22:08.990 ,1,1,0.,24.0,0.,24.0,0.,24.0,0.,24.0
1981-08-24 01:22:32.990 ,2,1,0.,24.0,0.,24.0,0.,24.0,0.,24.0
1981-08-24 01:22:56.990 ,3,1,0.,24.0,0.,24.0,0.,24.0,0.,24.0
1981-08-24 01:23:20.990 ,4,1,0.,24.0,0.,24.0,0.,24.0,0.,24.0
1981-08-24 01:23:44.990 ,5,1,0.,24.0,0.,24.0,0.,24.0,0.,24.0
1981-08-24 01:24:08.990 ,6,1,0.,24.0,0.,24.0,0.,24.0,0.,24.0
1981-08-24 01:24:32.990 ,7,1,0.,24.0,0.,24.0,0.,24.0,0.,24.0
1981-08-24 01:24:56.990 ,7,1,0.,24.0,0.,24.0,0.,24.0,0.,24.0
1981-08-24 01:25:20.990 ,7,0,0.,24.0,0.,24.0,0.,24.0,0.,24.0
1981-08-24 01:25:44.990 ,6,1,0.,24.0,0.,24.0,0.,24.0,0.,24.0
1981-08-24 01:26:08.990 ,6,0,0.,24.0,0.,24.0,0.,24.0,0.,24.0
1981-08-24 01:26:32.990 ,5,1,0.,24.0,0.,24.0,0.,24.0,0.,24.0
1981-08-24 01:26:56.990 ,5,0,0.,24.0,0.,24.0,0.,24.0,0.,24.0
1981-08-24 01:27:20.990 ,4,1,0.,24.0,0.,24.0,0.,24.0,0.,24.0
1981-08-24 01:27:44.990 ,4,0,0.,24.0,0.,24.0,0.,24.0,0.,24.0
1981-08-24 01:28:08.990 ,3,1,0.,24.0,0.,24.0,0.,24.0,0.,24.0
1981-08-24 01:28:32.990 ,3,0,0.,24.0,0.,24.0,0.,24.0,0.,24.0
1981-08-24 01:28:56.990 ,2,1,0.,24.0,0.,24.0,0.,24.0,0.,24.0
1981-08-24 01:29:20.990 ,2,0,0.,24.0,0.,24.0,0.,24.0,0.,24.0
1981-08-24 01:29:44.990 ,1,1,0.,24.0,0.,24.0,0.,24.0,0.,24.0
1981-08-24 01:30:08.990 ,1,0,0.,24.0,0.,24.0,0.,24.0,0.,24.0
1981-08-24 01:30:32.990 ,0,1,0.,24.0,0.,24.0,0.,24.0,0.,24.0
1981-08-24 01:30:56.990 ,0,0,0.,24.0,0.,24.0,0.,24.0,0.,24.0
1981-08-24 01:31:20.990 ,0,1,0.,24.0,0.,24.0,0.,24.0,0.,24.0
1981-08-24 01:31:44.990 ,0,0,0.,24.0,0.,24.0,0.,24.0,0.,24.0
1981-08-24 01:32:08.990 ,1,1,0.,24.0,0.,24.0,0.,24.0,0.,24.0
1981-08-24 01:32:32.990 ,1,0,0.,24.0,0.,24.0,0.,24.0,0.,24.0
1981-08-24 01:32:56.990 ,2,1,0.,24.0,0.,24.0,0.,24.0,0.,24.0
1981-08-24 01:33:20.990 ,2,0,0.,24.0,0.,24.0,0.,24.0,0.,24.0
1981-08-24 01:33:44.990 ,3,1,0.,24.0,0.,24.0,0.,24.0,0.,24.0
1981-08-24 01:34:08.990 ,3,0,0.,24.0,0.,24.0,0.,24.0,0.,24.0
1981-08-24 01:34:32.990 ,4,1,0.,24.0,0.,24.0,0.,24.0,0.,24.0
1981-08-24 01:34:56.990 ,4,0,0.,24.0,0.,24.0,0.,24.0,0.,24.0
1981-08-24 01:35:20.990 ,5,1,1.,24.0,0.,24.0,0.,24.0,0.,24.0
1981-08-24 01:35:44.990 ,5,0,0.,24.0,0.,24.0,0.,24.0,0.,24.0
1981-08-24 01:36:08.990 ,6,1,0.,24.0,0.,24.0,0.,24.0,0.,24.0
1981-08-24 01:36:32.990 ,0,0,0.,24.0,0.,24.0,0.,24.0,0.,24.0
1981-08-24 01:37:58.790 ,0,0,,0,,0,,0,,0
1981-08-24 01:38:08.990 ,6,1,0.,24.0,0.,24.0,0.,24.0,0.,24.0
1981-08-24 01:38:32.990 ,5,1,0.,24.0,0.,24.0,0.,24.0,0.,24.0
1981-08-24 01:38:56.990 ,4,1,0.,24.0,0.,24.0,0.,24.0,0.,24.0
1981-08-24 01:39:20.990 ,3,1,0.,24.0,0.,24.0,0.,24.0,0.,24.0
1981-08-24 01:39:44.990 ,2,1,0.,24.0,0.,24.0,0.,24.0,0.,24.0
1981-08-24 01:40:08.990 ,1,1,0.,24.0,0.,24.0,0.,24.0,0.,24.0
1981-08-24 01:40:32.990 ,0,1,0.,24.0,0.,24.0,0.,24.0,0.,24.0
1981-08-24 01:40:56.990 ,0,1,0.,24.0,0.,24.0,0.,24.0,0.,24.0
1981-08-24 01:41:20.990 ,1,1,0.,24.0,0.,24.0,0.,24.0,0.,24.0
1981-08-24 01:41:44.990 ,2,1,0.,24.0,0.,24.0,0.,24.0,0.,24.0
1981-08-24 01:42:08.990 ,3,1,0.,24.0,0.,24.0,0.,24.0,0.,24.0
1981-08-24 01:42:32.990 ,4,1,0.,24.0,0.,24.0,0.,24.0,0.,24.0
1981-08-24 01:42:56.990 ,5,1,0.,24.0,0.,24.0,0.,24.0,0.,24.0
1981-08-24 01:43:20.990 ,6,1,0.,24.0,0.,24.0,0.,24.0,0.,24.0
1981-08-24 01:43:44.990 ,7,1,0.,24.0,0.,24.0,0.,24.0,0.,24.0
1981-08-24 01:44:08.990 ,7,1,0.,24.0,0.,24.0,0.,24.0,0.,24.0
1981-08-24 01:44:32.990 ,7,0,0.,24.0,0.,24.0,0.,24.0,0.,24.0
1981-08-24 01:44:56.990 ,6,1,0.,24.0,0.,24.0,0.,24.0,0.,24.0
1981-08-24 01:45:20.990 ,6,0,0.,24.0,0.,24.0,0.,24.0,0.,24.0
1981-08-24 01:45:44.990 ,5,1,0.,24.0,0.,24.0,0.,24.0,0.,24.0
1981-08-24 01:46:08.990 ,5,0,0.,24.0,0.,24.0,0.,24.0,0.,24.0
1981-08-24 01:46:32.990 ,4,1,0.,24.0,0.,24.0,0.,24.0,0.,24.0
1981-08-24 01:46:56.990 ,4,0,0.,24.0,0.,24.0,0.,24.0,0.,24.0
1981-08-24 01:47:20.990 ,3,1,0.,24.0,0.,24.0,0.,24.0,0.,24.0
1981-08-24 01:47:44.990 ,3,0,0.,24.0,0.,24.0,0.,24.0,0.,24.0
1981-08-24 01:48:08.990 ,2,1,0.,24.0,0.,24.0,0.,24.0,0.,24.0
1981-08-24 01:48:32.990 ,2,0,0.,24.0,0.,24.0,0.,24.0,0.,24.0
1981-08-24 01:49:44.990 ,0,0,0.,24.0,0.,24.0,0.,24.0,0.,24.0
1981-08-24 01:50:08.990 ,0,0,0.,24.0,0.,24.0,0.,24.0,0.,24.0
1981-08-24 01:50:32.990 ,0,1,0.,24.0,0.,24.0,0.,24.0,0.,24.0
1981-08-24 01:50:56.990 ,0,0,0.,24.0,0.,24.0,0.,24.0,0.,24.0
1981-08-24 01:51:20.990 ,1,1,0.,24.0,0.,24.0,0.,24.0,0.,24.0
1981-08-24 01:51:44.990 ,1,0,0.,24.0,0.,24.0,0.,24.0,0.,24.0
1981-08-24 01:52:56.990 ,0,0,0.,24.0,0.,24.0,0.,24.0,0.,24.0
1981-08-24 01:53:20.990 ,0,0,0.,24.0,0.,24.0,0.,24.0,0.,24.0
1981-08-24 01:53:44.990 ,4,1,0.,24.0,0.,24.0,0.,24.0,0.,24.0
1981-08-24 01:54:08.990 ,4,0,0.,24.0,0.,24.0,0.,24.0,0.,24.0
1981-08-24 01:54:32.990 ,5,1,0.,24.0,0.,24.0,0.,24.0,0.,24.0
1981-08-24 01:54:56.990 ,5,0,0.,24.0,0.,24.0,0.,24.0,0.,24.0
1981-08-24 01:55:20.990 ,6,1,0.,24.0,0.,24.0,0.,24.0,0.,24.0
1981-08-24 01:55:44.990 ,6,0,0.,24.0,0.,24.0,0.,24.0,0.,24.0
1981-08-24 01:56:08.990 ,7,1,0.,24.0,0.,24.0,0.,24.0,0.,24.0
1981-08-24 01:56:32.990 ,7,0,0.,24.0,0.,24.0,0.,24.0,0.,24.0
1981-08-24 01:56:56.990 ,7,1,0.,24.0,0.,24.0,0.,24.0,0.,24.0
1981-08-24 01:57:20.990 ,6,1,0.,24.0,0.,24.0,0.,24.0,0.,24.0
1981-08-24 01:57:44.990 ,5,1,0.,24.0,0.,24.0,0.,24.0,0.,24.0
1981-08-24 01:58:08.990 ,4,1,0.,24.0,0.,24.0,0.,24.0,0.,24.0
1981-08-24 01:58:32.990 ,3,1,0.,24.0,0.,24.0,0.,24.0,0.,24.0
1981-08-24 01:58:56.990 ,2,1,0.,24.0,0.,24.0,0.,24.0,0.,24.0
1981-08-24 01:59:20.990 ,1,1,0.,24.0,0.,24.0,0.,24.0,0.,24.0
1981-08-24 01:59:44.990 ,0,1,0.,24.0,0.,24.0,0.,24.0,0.,24.0
1981-08-24 02:00:08.990 ,0,1,0.,24.0,0.,24.0,0.,24.0,0.,24.0
1981-08-24 02:00:32.990 ,1,1,0.,24.0,0.,24.0,0.,24.0,0.,24.0
1981-08-24 02:00:56.990 ,2,1,0.,24.0,0.,24.0,0.,24.0,0.,24.0
1981-08-24 02:01:20.990 ,3,1,0.,24.0,0.,24.0,0.,24.0,0.,24.0
1981-08-24 02:01:44.990 ,4,1,0.,24.0,0.,24.0,0.,24.0,0.,24.0
1981-08-24 02:02:08.990 ,5,1,0.,24.0,0.,24.0,0.,24.0,0.,24.0
1981-08-24 02:02:32.990 ,6,1,0.,24.0,0.,24.0,0.,24.0,0.,24.0
1981-08-24 02:02:56.990 ,7,1,0.,24.0,0.,24.0,0.,24.0,0.,24.0
1981-08-24 02:03:20.990 ,7,1,0.,24.0,0.,24.0,0.,24.0,0.,24.0
1981-08-24 02:03:44.990 ,7,0,0.,24.0,0.,24.0,0.,24.0,0.,24.0
1981-08-24 02:04:08.990 ,6,1,0.,24.0,0.,24.0,0.,24.0,0.,24.0
1981-08-24 02:04:32.990 ,6,0,0.,24.0,0.,24.0,0.,24.0,0.,24.0
1981-08-24 02:04:56.990 ,5,1,0.,24.0,0.,24.0,0.,24.0,0.,24.0
1981-08-24 02:05:20.990 ,5,0,0.,24.0,0.,24.0,0.,24.0,0.,24.0
1981-08-24 02:05:44.990 ,4,1,0.,24.0,0.,24.0,0.,24.0,0.,24.0
1981-08-24 02:06:08.990 ,4,0,0.,24.0,0.,24.0,0.,24.0,0.,24.0
1981-08-24 02:06:32.990 ,3,1,0.,24.0,0.,24.0,0.,24.0,0.,24.0
1981-08-24 02:06:56.990 ,3,0,0.,24.0,0.,24.0,0.,24.0,0.,24.0
1981-08-24 02:07:20.990 ,2,1,0.,24.0,0.,24.0,0.,24.0,0.,24.0
1981-08-24 02:07:44.990 ,2,0,0.,24.0,0.,24.0,0.,24.0,0.,24.0
1981-08-24 02:08:08.990 ,1,1,0.,24.0,0.,24.0,0.,24.0,0.,24.0
1981-08-24 02:08:32.990 ,1,0,0.,24.0,0.,24.0,0.,24.0,0.,24.0
1981-08-24 02:08:56.990 ,0,1,0.,24.0,0.,24.0,0.,24.0,0.,24.0
1981-08-24 02:09:20.990 ,0,0,0.,24.0,0.,24.0,0.,24.0,0.,24.0
1981-08-24 02:09:44.990 ,0,1,0.,24.0,0.,24.0,0.,24.0,0.,24.0
1981-08-24 02:10:08.990 ,0,0,0.,24.0,0.,24.0,0.,24.0,0.,24.0
1981-08-24 02:10:32.990 ,1,1,0.,24.0,0.,24.0,0.,24.0,0.,24.0
1981-08-24 02:10:56.990 ,1,0,0.,24.0,0.,24.0,0.,24.0,0.,24.0
1981-08-24 02:11:20.990 ,2,1,0.,24.0,0.,24.0,0.,24.0,0.,24.0
1981-08-24 02:11:44.990 ,2,0,0.,24.0,0.,24.0,0.,24.0,0.,24.0
1981-08-24 02:12:08.990 ,3,1,0.,24.0,0.,24.0,0.,24.0,0.,24.0
1981-08-24 02:12:32.990 ,3,0,0.,24.0,0.,24.0,0.,24.0,0.,24.0
1981-08-24 02:12:56.990 ,4,1,0.,24.0,0.,24.0,0.,24.0,0.,24.0
1981-08-24 02:13:20.990 ,4,0,0.,24.0,0.,24.0,0.,24.0,0.,24.0
1981-08-24 02:13:44.990 ,5,1,0.,24.0,0.,24.0,0.,24.0,0.,24.0
1981-08-24 02:14:08.990 ,5,0,0.,24.0,0.,24.0,0.,24.0,0.,24.0
1981-08-24 02:14:32.990 ,6,1,0.,24.0,0.,24.0,0.,24.0,0.,24.0
1981-08-24 02:14:56.990 ,6,0,0.,24.0,0.,24.0,0.,24.0,0.,24.0
1981-08-24 02:15:20.990 ,7,1,0.,24.0,0.,24.0,0.,24.0,0.,24.0
1981-08-24 02:15:44.990 ,7,0,0.,24.0,0.,24.0,0.,24.0,0.,24.0
1981-08-24 02:16:08.990 ,7,1,0.,24.0,0.,24.0,0.,24.0,0.,24.0
1981-08-24 02:16:32.990 ,6,1,0.,24.0,0.,24.0,0.,24.0,0.,24.0
1981-08-24 02:16:56.990 ,5,1,0.,24.0,0.,24.0,0.,24.0,0.,24.0
1981-08-24 02:17:20.990 ,4,1,0.,24.0,0.,24.0,0.,24.0,0.,24.0
1981-08-24 02:17:44.990 ,3,1,0.,24.0,0.,24.0,0.,24.0,0.,24.0
1981-08-24 02:18:08.990 ,2,1,0.,24.0,0.,24.0,0.,24.0,0.,24.0
1981-08-24 02:18:32.990 ,1,1,0.,24.0,0.,24.0,0.,24.0,0.,24.0
1981-08-24 02:18:56.990 ,0,1,0.,24.0,0.,24.0,0.,24.0,0.,24.0
1981-08-24 02:19:20.990 ,0,1,0.,24.0,0.,24.0,0.,24.0,0.,24.0
1981-08-24 02:19:44.990 ,1,1,0.,24.0,0.,24.0,0.,24.0,0.,24.0
1981-08-24 02:20:08.990 ,2,1,0.,24.0,0.,24.0,0.,24.0,0.,24.0
1981-08-24 02:20:32.990 ,3,1,0.,24.0,0.,24.0,0.,24.0,0.,24.0
1981-08-24 02:20:56.990 ,4,1,0.,24.0,0.,24.0,0.,24.0,0.,24.0
1981-08-24 02:21:20.990 ,5,1,0.,24.0,0.,24.0,0.,24.0,0.,24.0
1981-08-24 02:21:44.990 ,6,1,0.,24.0,0.,24.0,0.,24.0,0.,24.0
1981-08-24 02:22:08.990 ,7,1,0.,24.0,0.,24.0,0.,24.0,0.,24.0
1981-08-24 02:22:32.990 ,7,1,0.,24.0,0.,24.0,0.,24.0,0.,24.0
1981-08-24 02:22:56.990 ,7,0,0.,24.0,0.,24.0,0.,24.0,0.,24.0
1981-08-24 02:23:20.990 ,6,1,0.,24.0,0.,24.0,0.,24.0,0.,24.0
1981-08-24 02:23:44.990 ,6,0,0.,24.0,0.,24.0,0.,24.0,0.,24.0
1981-08-24 02:24:08.990 ,5,1,0.,24.0,0.,24.0,0.,24.0,0.,24.0
1981-08-24 02:24:32.990 ,5,0,0.,24.0,0.,24.0,0.,24.0,0.,24.0
1981-08-24 02:24:56.990 ,4,1,0.,24.0,0.,24.0,0.,24.0,0.,24.0
1981-08-24 02:25:20.990 ,4,0,0.,24.0,0.,24.0,0.,24.0,0.,24.0
1981-08-24 02:25:44.990 ,3,1,0.,24.0,0.,24.0,0.,24.0,0.,24.0
1981-08-24 02:26:08.990 ,3,0,0.,24.0,0.,24.0,0.,24.0,0.,24.0
1981-08-24 02:26:32.990 ,2,1,0.,24.0,0.,24.0,0.,24.0,0.,24.0
1981-08-24 02:26:56.990 ,2,0,0.,24.0,0.,24.0,0.,24.0,0.,24.0
1981-08-24 02:27:20.990 ,1,1,0.,24.0,0.,24.0,0.,24.0,0.,24.0
1981-08-24 02:27:44.990 ,1,0,0.,24.0,0.,24.0,0.,24.0,0.,24.0
1981-08-24 02:28:08.990 ,0,1,0.,24.0,0.,24.0,0.,24.0,0.,24.0
1981-08-24 02:28:32.990 ,0,0,0.,24.0,0.,24.0,0.,24.0,0.,24.0
1981-08-24 02:28:56.990 ,0,1,0.,24.0,0.,24.0,0.,24.0,0.,24.0
1981-08-24 02:29:20.990 ,0,0,0.,24.0,0.,24.0,0.,24.0,0.,24.0
1981-08-24 02:29:44.990 ,1,1,0.,24.0,0.,24.0,0.,24.0,0.,24.0
1981-08-24 02:30:08.990 ,1,0,0.,24.0,0.,24.0,0.,24.0,0.,24.0
1981-08-24 02:30:32.990 ,2,1,0.,24.0,0.,24.0,0.,24.0,0.,24.0
1981-08-24 02:30:56.990 ,2,0,0.,24.0,0.,24.0,0.,24.0,0.,24.0
1981-08-24 02:31:20.990 ,3,1,0.,24.0,0.,24.0,0.,24.0,0.,24.0
1981-08-24 02:31:44.990 ,3,0,0.,24.0,0.,24.0,0.,24.0,0.,24.0
1981-08-24 02:32:08.990 ,4,1,0.,24.0,0.,24.0,0.,24.0,0.,24.0
1981-08-24 02:32:32.990 ,4,0,0.,24.0,0.,24.0,0.,24.0,0.,24.0
1981-08-24 02:32:56.990 ,5,1,0.,24.0,0.,24.0,0.,24.0,0.,24.0
1981-08-24 02:33:20.990 ,5,0,0.,24.0,0.,24.0,0.,24.0,0.,24.0
1981-08-24 02:33:44.990 ,6,1,0.,24.0,0.,24.0,0.,24.0,0.,24.0
1981-08-24 02:34:08.990 ,6,0,0.,24.0,0.,24.0,0.,24.0,0.,24.0
1981-08-24 02:34:32.990 ,7,1,0.,24.0,0.,24.0,0.,24.0,0.,24.0
1981-08-24 02:34:56.990 ,7,0,0.,24.0,0.,24.0,0.,24.0,0.,24.0
1981-08-24 02:35:20.990 ,7,1,0.,24.0,0.,24.0,0.,24.0,0.,24.0
1981-08-24 02:35:44.990 ,6,1,0.,24.0,0.,24.0,0.,24.0,0.,24.0
1981-08-24 02:36:08.990 ,5,1,0.,24.0,0.,24.0,0.,24.0,0.,24.0
1981-08-24 02:36:32.990 ,4,1,0.,24.0,0.,24.0,0.,24.0,0.,24.0
1981-08-24 02:36:56.990 ,3,1,0.,24.0,0.,24.0,0.,24.0,0.,24.0
1981-08-24 02:37:20.990 ,2,1,0.,24.0,0.,24.0,0.,24.0,0.,24.0